RIPO2: Cimarron River Near Ripley, OK

                                SHEF ID:       RIPO2     Cimarron River near Ripley, OK
STATION TYPE:
Regulating: Stage = 20.00, Flow = 33370

PRECIP ELEVATION STAGE RIV-FLOW AIR-TEMP WIND-DIRWIND-SPEED REL-HUMID VOLTAGE BAT-LOAD
in ft ft cfs F deg mph % volt volt
Ccp-Rev Ccp-Rev Ccp-Rev Ccp-Rev Ccp-Rev Ccp-Rev Ccp-Rev Ccp-Rev Ccp-Rev Ccp-Rev
(America/Chicago)
03/21 00:00 0.00 ---- 7.37 391 160.88 ---- ---- ---- ---- 12.63
03/21 01:00 0.00 ---- 7.37 391 155.84 ---- ---- ---- ---- 12.60
03/21 02:00 0.00 ---- 7.37 391 151.52 ---- ---- ---- ---- 12.58
03/21 03:00 0.00 ---- 7.37 391 146.30 ---- ---- ---- ---- 12.57
03/21 04:00 0.00 ---- 7.37 391 143.96 ---- ---- ---- ---- 12.56
03/21 05:00 0.00 ---- 7.37 391 141.08 ---- ---- ---- ---- 12.54
03/21 06:00 0.00 ---- 7.36 387 138.20 ---- ---- ---- ---- 12.53
03/21 07:00 0.00 ---- 7.37 391 135.50 ---- ---- ---- ---- 12.50
03/21 08:00 0.00 ---- 7.36 387 134.24 ---- ---- ---- ---- 12.49
03/21 09:00 0.00 ---- 7.36 387 138.02 ---- ---- ---- ---- 12.54
03/21 10:00 0.00 ---- 7.36 387 148.10 ---- ---- ---- ---- 13.35
03/21 11:00 0.00 ---- 7.36 387 159.98 ---- ---- ---- ---- 13.42
03/21 12:00 0.00 ---- 7.35 382 170.24 ---- ---- ---- ---- 13.33
03/21 13:00 0.00 ---- 7.36 387 180.50 ---- ---- ---- ---- 13.18
03/21 14:00 0.00 ---- 7.35 382 190.22 ---- ---- ---- ---- 13.08
03/21 15:00 0.00 ---- 7.35 382 197.60 ---- ---- ---- ---- 13.03
03/21 16:00 0.00 ---- 7.34 378 201.56 ---- ---- ---- ---- 13.00
03/21 17:00 0.00 ---- 7.34 378 203.18 ---- ---- ---- ---- 12.99
03/21 18:00 0.00 ---- 7.34 378 203.00 ---- ---- ---- ---- 12.96
03/21 19:00 0.00 ---- 7.34 378 199.58 ---- ---- ---- ---- 12.98
03/21 20:00 0.00 ---- 7.35 382 191.30 ---- ---- ---- ---- 13.07
03/21 21:00 0.00 ---- 7.35 382 182.48 ---- ---- ---- ---- 12.85
03/21 22:00 0.00 ---- 7.35 382 176.72 ---- ---- ---- ---- 12.72
03/21 23:00 0.00 ---- 7.35 382 174.20 ---- ---- ---- ---- 12.66
Data processed at Sun 22Mar2026 04:02 GMT

NOTICE: If you are parsing this page

Please convert to using our Data API. Starting early 2026 we will be migrating to: https://water.usace.army.mil with modern pages rendered in JavaScript. When this migration completes you will no longer be able to scrape this page! CWMSDataAPI (CDA)

Timeseries IDs (TSIDs)

TSIDs used from left to right in the data table
RIPL.Precip-Inc.Total.1Hour.1Hour.Ccp-Rev
RIPL.Stage.Inst.1Hour.0.Ccp-Rev
RIPL.Flow.Inst.1Hour.0.Ccp-Rev
RIPL.Temp-Air.Inst.1Hour.0.Ccp-Rev
RIPL.Dir-Wind.Inst.1Hour.0.Ccp-Rev
RIPL.Speed-Wind.Inst.1Hour.0.Ccp-Rev
RIPL.%-Humidity.Inst.1Hour.0.Ccp-Rev
RIPL.Volt-Battery.Inst.1Hour.0.Ccp-Rev
RIPL.Volt-Battery Load.Inst.1Hour.0.Ccp-Rev

                            

All information presented herein is the property of the government of the United States of America and may be revised or deleted at any time without prior notice. Dissemination of this information without the expressed written consent of the Public Affairs Office, Tulsa District U.S. Army Corps of Engineers is strictly prohibited. These data are gathered electronically and, as presented, have NOT undergone any form of quality control. These data are NOT guaranteed to be valid or correct.